TimeHST,TemperatureF,Dew PointF,Humidity,Sea Level PressureIn,VisibilityMPH,Wind Direction,Wind SpeedMPH,Gust SpeedMPH,PrecipitationIn,Events,Conditions,WindDirDegrees,DateUTC
12:54 AM,66.9,64.9,93,29.95,10.0,Calm,Calm,-,N/A,,Clear,0,2013-11-18 10:54:00
1:54 AM,-9999,-9999,N/A,29.94,10.0,ENE,3.5,-,N/A,,Clear,70,2013-11-18 11:54:00
2:54 AM,69.1,66.0,90,29.94,10.0,East,3.5,-,N/A,,Clear,100,2013-11-18 12:54:00
3:54 AM,-9999,-9999,N/A,29.93,10.0,East,4.6,-,N/A,,Partly Cloudy,90,2013-11-18 13:54:00
4:54 AM,-9999,-9999,N/A,29.94,10.0,ENE,4.6,-,N/A,,Clear,70,2013-11-18 14:54:00
5:54 AM,-9999,-9999,N/A,29.96,10.0,Calm,Calm,-,N/A,,Clear,0,2013-11-18 15:54:00
5:58 AM,68.0,64.4,88,29.96,10.0,Calm,Calm,-,N/A,,Clear,0,2013-11-18 15:58:00
6:54 AM,68.0,64.9,90,29.99,10.0,NE,3.5,-,N/A,,Clear,50,2013-11-18 16:54:00
7:54 AM,68.0,66.9,96,30.00,10.0,East,3.5,-,N/A,,Clear,80,2013-11-18 17:54:00
8:54 AM,77.0,70.0,79,30.00,10.0,Variable,3.5,-,N/A,,Clear,0,2013-11-18 18:54:00
9:54 AM,80.1,70.0,71,30.00,10.0,Variable,3.5,-,N/A,,Partly Cloudy,0,2013-11-18 19:54:00
10:54 AM,82.0,69.1,65,29.99,10.0,Variable,4.6,-,N/A,,Partly Cloudy,0,2013-11-18 20:54:00
11:54 AM,81.0,68.0,65,29.96,10.0,North,8.1,-,N/A,,Mostly Cloudy,10,2013-11-18 21:54:00
12:54 PM,82.9,68.0,60,29.94,10.0,North,9.2,-,N/A,,Scattered Clouds,360,2013-11-18 22:54:00
1:54 PM,82.9,66.9,58,29.90,10.0,NNE,8.1,-,N/A,,Clear,30,2013-11-18 23:54:00
2:54 PM,82.0,64.0,54,29.91,10.0,NNE,6.9,-,N/A,,Clear,20,2013-11-19 00:54:00
3:54 PM,84.0,63.0,49,29.90,10.0,NNE,5.8,-,N/A,,Partly Cloudy,20,2013-11-19 01:54:00
4:54 PM,80.1,71.1,74,29.92,10.0,SSE,6.9,-,N/A,,Scattered Clouds,160,2013-11-19 02:54:00
5:54 PM,77.0,71.1,82,29.94,10.0,SSE,3.5,-,N/A,,Clear,150,2013-11-19 03:54:00
6:54 PM,73.9,70.0,87,29.97,10.0,Calm,Calm,-,N/A,,Clear,0,2013-11-19 04:54:00
7:54 PM,73.0,70.0,90,29.99,10.0,ENE,3.5,-,N/A,,Clear,60,2013-11-19 05:54:00
8:54 PM,70.0,69.1,97,30.00,10.0,ENE,4.6,-,N/A,,Clear,60,2013-11-19 06:54:00
9:54 PM,-9999,-9999,N/A,30.00,10.0,ENE,4.6,-,N/A,,Clear,60,2013-11-19 07:54:00
10:54 PM,-9999,-9999,N/A,29.99,10.0,Calm,Calm,-,N/A,,Clear,0,2013-11-19 08:54:00
11:54 PM,-9999,-9999,N/A,29.99,10.0,Calm,Calm,-,N/A,,Clear,0,2013-11-19 09:54:00